#timestamp,LO_Frequency,Hit,StdDev 
1636178415.5,286047002.6,N
1636178435.3,286047000.2,N
1636178455.2,286047003.6,N
1636178475.9,286047005.2,N
1636178495.7,286047005.7,N
1636178515.6,286047000.6,N
1636178535.4,286046996.5,N
1636178555.2,286047003.7,N
1636178575.1,286047006.2,N
1636178576.0,286047006.2,N
1636178595.8,286047005.5,N
1636178615.7,286047001.4,N
1636178635.5,286047000.7,N
1636178655.3,286047004.1,N
1636178675.2,286047008.8,Y
1636178695.0,286047005.3,P
1636178695.9,286047005.3,P
1636178715.7,286047005.0,P
1636178735.6,286047003.3,N
1636178755.4,286047007.1,Y
1636178775.3,286047000.0,P
1636178795.1,286046995.4,N
1636178815.8,286046991.4,N
1636178835.7,286046991.0,N
1636178855.5,286046990.2,N
1636178875.4,286046993.4,N
1636178895.2,286046994.9,N
1636178915.0,286047000.4,N
1636178915.9,286047000.4,N
1636178935.8,286047004.1,N
1636178955.6,286047003.2,N
1636178975.4,286047008.1,N
1636178995.3,286047007.4,N
1636179015.1,286047000.3,N
1636179035.9,286047005.5,N
1636179055.7,286047004.3,N
1636179075.5,286047005.2,N
1636179095.4,286047011.9,N
1636179115.2,286047004.6,N
1636179135.1,286047008.5,N
1636179136.0,286047008.5,N
1636179155.8,286047001.7,N
1636179175.6,286047006.1,N
1636179195.5,286047009.6,N
1636179215.3,286047006.8,N
1636179235.1,286047008.4,N
1636179255.9,286047006.2,N
1636179275.7,286047008.3,N
1636179295.6,286047010.1,N
1636179315.4,286047010.3,N
1636179335.2,286047006.8,N
1636179355.1,286047008.7,N
1636179356.0,286047008.7,N
1636179375.8,286047006.3,N
1636179395.7,286047007.5,N
1636179415.5,286047006.6,N
1636179435.3,286047012.2,Y
1636179455.2,286047012.2,P
1636179475.0,286047009.4,P
1636179475.9,286047009.4,P
1636179495.8,286047011.8,Y
1636179515.6,286047000.5,P
1636179535.4,286047001.1,N
1636179555.3,286046996.5,N
1636179575.1,286047000.0,N
1636179595.8,286047004.4,N
1636179615.7,286046998.7,N
1636179635.5,286046998.1,N
1636179655.4,286046999.1,N
1636179675.2,286046996.6,N
1636179695.0,286046995.9,N
1636179695.9,286046995.9,N
1636179715.8,286046995.2,N
1636179735.6,286046997.5,N
1636179755.4,286046998.8,N
1636179775.3,286046999.4,N
1636179795.1,286047001.7,N
1636179815.9,286047002.8,N
1636179835.7,286046998.2,N
1636179855.5,286046995.4,N
1636179875.4,286046993.2,N
1636179895.2,286046985.5,Y
1636179915.0,286046988.4,P
1636179915.9,286046988.4,N
1636179935.8,286046982.2,P
1636179955.6,286046985.8,N
1636179975.5,286046985.7,N
1636179995.3,286046988.6,N
1636180015.1,286046988.2,N
1636180035.9,286046984.9,Y
1636180055.7,286046994.3,P
1636180075.6,286046994.9,N
1636180095.4,286046992.3,N
1636180115.2,286046994.8,N
1636180135.1,286046986.3,Y
1636180136.0,286046995.1,P
1636180155.8,286046997.3,N
1636180175.6,286046992.4,P
1636180195.5,286046989.2,Y
1636180215.3,286046990.6,P
1636180235.2,286046991.5,P
1636180255.9,286046992.1,P
1636180275.7,286046989.5,Y
1636180295.6,286046999.6,P
1636180315.4,286046998.8,N
1636180335.3,286046995.3,N
1636180355.1,286046998.3,N
1636180356.0,286046998.3,N
1636180375.8,286047000.6,N
1636180395.7,286047005.9,N
1636180415.5,286047005.6,N
1636180435.3,286047008.8,N
1636180455.2,286047007.5,N
1636180475.0,286047012.7,N
1636180475.9,286047012.7,N
1636180495.8,286047015.6,N
1636180515.6,286047013.1,N
1636180535.4,286047017.8,N
1636180555.3,286047020.4,N
1636180575.1,286047021.6,N
1636180595.8,286047021.9,N
1636180615.7,286047020.1,N
1636180635.5,286047022.3,N
1636180655.4,286047022.5,N
1636180675.2,286047019.8,N
1636180695.0,286047016.1,N
1636180695.9,286047016.1,N
1636180715.8,286047020.8,N
1636180735.6,286047023.1,N
1636180755.4,286047025.6,N
1636180775.3,286047029.7,Y
1636180795.1,286047015.2,P
1636180815.9,286047017.3,P
1636180835.7,286047005.8,N
1636180855.5,286047011.6,N
1636180875.4,286047008.1,N
1636180895.2,286047006.2,N
1636180915.0,286047004.9,N
1636180915.9,286047004.9,N
1636180935.8,286047010.5,N
1636180955.6,286047011.1,N
1636180975.5,286047011.8,N
1636180995.3,286047014.7,Y
1636181015.1,286047006.8,P
1636181035.9,286047012.1,P
1636181055.7,286047010.6,P
1636181075.5,286047008.4,Y
1636181095.4,286046999.6,P
1636181115.2,286046999.8,N
1636181135.1,286047005.1,N
1636181136.0,286047005.1,N
1636181155.8,286047006.5,N
1636181175.6,286047009.9,N
1636181195.5,286047013.0,Y
1636181215.3,286047010.2,P
1636181235.2,286047009.4,P
1636181255.9,286047014.4,P
1636181275.7,286047019.0,Y
1636181295.6,286047010.2,P
1636181315.4,286047015.1,P
1636181335.2,286047014.1,P
1636181355.1,286047009.7,Y
1636181356.0,286047009.7,P
1636181375.8,286046999.4,N
1636181395.7,286046998.7,N
1636181415.5,286047003.4,N
1636181435.3,286047006.7,N
1636181455.2,286047009.8,N
1636181475.0,286047012.2,N
1636181475.9,286047012.2,N
1636181495.7,286047014.9,N
1636181515.6,286047012.7,N
1636181535.4,286047015.8,N
1636181555.3,286047018.0,Y
1636181575.1,286047011.8,P
1636181595.8,286047013.1,P
1636181615.7,286047012.0,P
1636181635.5,286047011.2,Y
1636181655.4,286047000.6,P
1636181675.2,286047001.1,N
1636181695.0,286047000.4,N
1636181695.9,286047000.4,N
1636181715.8,286046996.5,N
1636181735.6,286046996.5,N
1636181755.5,286046998.8,N
1636181775.3,286046990.4,N
1636181795.1,286046987.8,N
1636181815.9,286046986.4,N
1636181835.7,286046982.7,N
1636181855.5,286046982.1,N
1636181875.4,286046978.7,N
1636181895.2,286046970.1,Y
1636181915.1,286046975.0,P
1636181916.0,286046975.0,N
1636181935.8,286046974.7,N
1636181955.6,286046976.3,N
1636181975.5,286046971.8,Y
1636181995.3,286046994.5,P
